星链-1334 (STARLINK-1334 )

导读

STARLINK-1334是美国太空探索技术公司 SpaceX 星链星座的组成卫星,于2020年4月22日由猎鹰9号火箭发射入轨。星链旨在构建全球卫星互联网,该卫星承担低轨宽带通信传输任务,为全球偏远地区、海洋等场景提供互联网接入服务,是星链大规模组网进程中的一颗低轨卫星,推动了全球互联网络覆盖的扩展。

Basic Information
目录编号:
45556
目录名称:
STARLINK-1334
国际标识:
2020-025AB
轨道中心:
EARTH
卫星名称:
星链-1334
卫星全名:
星链-1334 (STARLINK-1334 )
卫星状态:
已陨落 最后检测时间 2025-06-06
发射日期:
2020-04-22 UTC
国别 :
美国 (US)
星等 :
--
Orbit Information
数据来源 国际轨道数据
星历时间: 2025-06-06T18:49:26+0800
轨道信息已过期377天
半长轴: 6518.159km
偏心率: 0.0007217
轨道倾角: 53.019°
近地点辐角 284.294°
升交点赤经 166.908°
平近点角 245.596°
近地点: 135.319km
远地点: 144.729km
周期: 87.286分钟
每日圈数: 16.497397
Detailed Information
固有亮度:
5
最大亮度:
2.5
卫星平台:
Starlink V1.0
覆盖范围:
全球
运营商:
太空探索技术公司
运营商所在国:
美国
制造商(研发单位):
太空探索技术公司
制造商所在国:
美国
使用方式:
暂无
Satellite Introduction
星链(Starlink)计划是由太空探索技术公司(SpaceX)提出的一个巨型低轨卫星互联网星座项目,计划在2019年至2024年间在太空搭建由约1.2万颗卫星组成的“星链”网络,其中1584颗将部署在地球上空550千米处的近地轨道,并从2020年开始工作。该卫星仍在工作。